Vertical_Velocity
-2 -2 4 4 15 13 -6 -2 -2 -0 3 3 2 2 3 0 -1 5 -0 -4 2 -0
1 4 -1 1 21 -1 -4 5 -1 -1 -3 2 3 4 1 -1 -1 4 9 -1 0 1
-1 1 -2 11 10 -4 4 5 3 0 0 2 4 1 17 -9 11 0 1 -1 4 -0
-6 -3 4 10 -1 5 2 4 -2 0 0 1 -4 3 -2 -5 -1 -3 1 2 -1 -2
-3 8 2 -6 8 1 2 2 -0 0 2 2 4 17 -7 9 -2 -0 -0 -0 -2 2
-3 1 -0 3 -0 -5 -2 -2 -5 -1 4 -8 17 6 -10 3 -1 -3 -0 -1 -1 -3
8 4 9 -3 -4 -3 -0 -5 1 2 -2 -2 26 -5 2 -7 3 -2 -1 -0 -2 -0
6 7 9 -3 -1 0 -2 4 1 -7 -5 1 -3 4 -9 -0 -0 -2 -1 -0 -0 0
4 -0 -5 0 2 -1 -1 1 -1 -8 -6 -4 3 2 -0 -0 3 -1 1 1 1 -0
2 6 8 0 4 -3 0 -2 0 -0 -5 -2 -1 -2 6 -2 3 2 0 0 0 -1
3 2 6 1 -5 -4 2 7 1 1 -3 -4 -1 -1 -2 -3 2 2 -1 0 -1 -5
5 7 9 1 -4 2 2 3 2 1 -2 -2 -0 -0 1 3 2 -1 -1 -3 -4 -1
-4 2 0 -2 3 4 5 3 -3 -1 1 2 0 1 3 1 3 2 -1 -2 -3 -6
4 5 4 3 -1 5 2 -1 2 2 2 -1 -2 -2 -0 0 0 1 2 -5 -3 -1
Height
3074 3078 3081 3084 3088 3090 3093 3094 3095 3095 3095 3095 3095 3096 3097 3098 3099 3101 3100 3100 3100 3097
3064 3067 3070 3073 3079 3081 3083 3085 3085 3085 3086 3086 3087 3088 3088 3089 3091 3092 3093 3093 3092 3090
3056 3058 3059 3065 3069 3071 3074 3075 3075 3076 3076 3077 3077 3077 3080 3082 3083 3086 3086 3086 3085 3084
3045 3048 3050 3054 3058 3062 3065 3066 3067 3066 3066 3067 3068 3070 3073 3075 3078 3077 3078 3078 3078 3076
3035 3038 3039 3043 3049 3053 3056 3058 3058 3058 3058 3059 3059 3062 3067 3066 3069 3070 3070 3070 3070 3068
3024 3027 3029 3035 3041 3045 3048 3049 3049 3049 3049 3050 3052 3052 3059 3060 3061 3063 3063 3062 3062 3060
3013 3017 3022 3028 3032 3036 3038 3040 3041 3041 3040 3044 3045 3048 3050 3054 3053 3054 3054 3054 3054 3052
3006 3010 3015 3020 3023 3026 3029 3032 3033 3032 3034 3036 3040 3041 3043 3044 3046 3046 3046 3045 3045 3043
2998 3002 3007 3011 3014 3018 3021 3023 3024 3023 3026 3029 3031 3033 3035 3036 3037 3036 3037 3037 3036 3034
2988 2993 2998 3003 3006 3009 3012 3014 3015 3016 3018 3021 3023 3025 3025 3027 3027 3027 3027 3028 3026 3024
2981 2985 2989 2994 2997 3000 3002 3004 3005 3007 3009 3012 3015 3016 3016 3018 3018 3018 3018 3019 3017 3014
2974 2978 2982 2985 2988 2991 2994 2996 2997 3000 3001 3002 3005 3007 3008 3009 3009 3009 3010 3009 3008 3007
2965 2969 2973 2975 2979 2983 2985 2987 2988 2990 2993 2994 2997 2999 3000 3001 3001 3001 3001 3000 2999 2999
2953 2956 2960 2964 2968 2972 2975 2977 2980 2982 2984 2987 2989 2990 2991 2992 2992 2992 2991 2991 2991 2989